Theta_e
285 285 285 284 284 283 283 283 283 282 282 282 281 281 281 281 281 280 280 280 280 282 283 285 286 287 288 290 291 291 293 296 297 299 301 302 304 305 306 306 306 306 306 306 306 306 305 305 304 304 303 302 301 300 299 296 294 293 292 292 292 291 291 291 291 291 291 290 290 290 291 291 291 291 292 293 294 296 297 298 299 299 300 300 301
284 284 284 284 284 284 283 283 283 282 282 282 281 281 281 281 281 280 280 280 280 280 281 282 282 283 285 286 288 289 290 291 291 293 294 296 299 301 302 303 304 305 305 305 306 305 305 304 304 303 302 301 300 299 299 296 293 293 292 292 291 291 291 291 291 291 290 289 289 289 289 290 290 290 290 291 291 293 295 296 297 297 297 298 298
284 284 284 284 284 284 283 283 283 282 282 282 281 281 280 280 281 280 280 279 279 279 280 280 281 282 282 284 285 287 288 289 289 291 292 293 295 296 297 299 300 302 303 304 304 304 304 304 303 303 302 301 298 297 296 295 293 292 292 292 291 291 291 291 291 291 290 289 289 289 290 289 290 289 289 290 290 290 292 293 294 295 295 295 296
285 284 284 284 284 284 283 283 283 282 282 282 281 281 280 280 280 280 280 279 279 279 279 279 280 280 281 282 283 284 287 289 290 291 291 291 291 292 293 294 295 298 300 301 302 303 303 303 303 303 302 300 298 297 296 295 293 292 292 292 292 291 290 290 291 291 290 290 289 289 289 289 291 289 288 289 290 290 290 291 292 292 293 294 294
285 285 284 284 284 284 284 283 283 282 282 282 282 281 280 280 280 280 280 279 279 279 279 279 279 280 280 281 282 283 284 286 287 287 286 286 288 289 290 290 290 292 296 298 299 300 301 301 301 301 300 299 298 298 297 295 294 293 292 292 292 291 290 290 290 290 290 291 291 290 290 290 291 289 288 289 289 289 290 290 290 291 291 293 293
285 285 284 284 284 284 284 283 283 282 282 282 282 281 281 280 280 280 280 279 279 279 279 279 278 279 279 279 280 281 281 281 281 282 282 282 283 284 287 289 289 289 290 293 295 297 298 299 300 300 299 298 298 297 297 295 294 293 292 292 292 292 291 290 290 290 290 291 291 292 292 292 291 288 288 290 288 287 289 289 290 290 290 291 292
284 284 284 284 284 284 284 283 283 283 282 282 282 282 281 281 280 280 280 280 279 279 279 279 278 278 278 278 278 279 279 279 279 280 280 280 280 281 283 286 287 287 287 288 290 292 295 296 297 298 299 298 298 296 296 295 295 294 293 292 292 291 291 290 290 290 289 290 290 291 291 290 290 289 289 290 289 287 287 288 289 290 290 290 291
285 284 284 284 284 284 284 283 283 283 283 283 283 282 282 281 281 280 280 280 280 279 279 279 278 278 278 278 278 278 278 278 278 278 278 279 279 280 280 282 284 285 285 286 287 288 290 292 294 295 296 297 297 297 296 295 295 295 293 293 292 291 291 291 290 290 289 289 290 290 290 289 290 290 290 290 290 289 287 286 288 289 290 290 290
284 284 283 283 284 284 284 284 283 283 283 283 283 283 282 282 281 281 280 280 280 280 279 279 279 278 278 278 278 277 277 277 278 278 278 278 278 278 279 280 281 282 282 283 285 286 286 287 289 291 292 294 295 296 297 296 296 296 294 293 292 292 291 291 291 290 290 290 289 289 289 289 289 289 289 289 289 289 288 286 286 287 288 289 290
284 284 284 283 283 284 284 284 284 284 283 283 283 283 282 282 282 281 281 280 280 280 280 279 279 279 278 278 278 277 277 277 277 277 277 278 278 278 278 278 279 279 280 280 281 283 284 285 285 286 288 290 292 293 295 295 296 296 296 294 293 292 292 291 291 291 290 290 290 289 289 288 287 287 287 288 288 288 289 287 285 286 287 288 289
284 284 284 284 284 284 284 284 284 284 284 284 283 283 283 282 282 282 281 281 280 280 280 279 279 279 279 278 278 278 278 277 277 277 277 277 277 277 278 278 278 278 278 278 278 279 281 282 283 284 285 286 288 290 291 293 294 295 295 295 293 292 292 292 291 291 290 290 290 289 289 288 288 288 287 287 287 288 288 287 285 286 286 287 288
284 284 284 284 284 284 284 284 283 284 284 284 284 283 283 282 282 281 281 281 280 280 280 279 279 279 279 279 278 278 278 277 277 277 277 277 277 277 277 277 277 277 277 276 277 277 278 279 280 281 283 284 285 287 288 290 291 293 294 294 294 292 292 292 291 291 291 290 290 289 289 289 289 289 288 288 288 288 288 286 284 285 286 286 287
285 285 284 284 284 283 283 283 283 283 283 283 284 283 283 282 282 281 281 281 281 280 280 280 279 279 279 279 279 278 278 278 277 277 277 277 277 277 277 277 277 277 277 276 276 276 277 277 277 278 279 281 282 284 286 287 289 290 292 293 293 292 292 292 291 292 291 291 290 290 289 289 289 289 289 288 288 288 287 286 284 285 286 286 286
285 285 283 283 283 283 283 283 282 282 282 283 283 283 282 282 282 281 281 281 281 280 280 280 280 280 279 279 279 279 278 278 278 277 277 277 277 277 276 276 276 276 276 276 276 276 276 276 276 277 277 278 280 282 283 285 287 288 289 291 292 292 292 292 292 292 292 291 291 290 290 289 289 289 289 289 288 288 287 286 285 284 284 284 284
286 285 283 283 283 283 282 282 282 282 282 282 282 282 282 282 282 281 281 281 281 280 280 280 280 280 280 279 279 279 278 278 278 278 277 277 277 277 276 276 276 276 276 276 276 276 276 275 276 276 277 277 278 279 281 283 285 286 287 289 291 292 292 292 292 292 292 291 291 291 290 290 289 289 289 289 289 288 288 287 286 286 285 283 282
285 285 283 282 283 282 282 282 281 281 281 281 281 281 281 282 282 281 281 281 280 280 280 280 279 279 279 280 279 279 279 278 278 278 278 278 277 277 277 276 276 276 276 276 276 276 276 276 275 275 276 277 277 278 279 280 282 284 285 287 289 291 291 291 292 291 291 291 291 291 290 290 290 289 289 289 289 289 289 288 287 287 287 286 283
285 284 283 282 282 282 281 281 281 281 281 281 281 281 281 281 281 281 281 281 280 280 280 280 279 279 279 279 279 279 279 279 278 278 278 278 278 277 277 277 276 276 276 276 276 276 276 276 276 275 275 276 277 277 278 279 280 281 283 284 286 289 290 291 291 291 291 291 291 291 290 290 290 290 289 289 288 288 288 288 288 288 288 288 287
284 283 282 282 282 281 281 280 280 280 280 280 281 281 281 281 281 281 280 280 280 280 280 280 279 279 279 279 279 279 279 279 279 278 278 278 278 278 277 277 277 276 276 276 275 275 276 276 276 275 275 275 275 276 276 277 279 279 281 282 284 286 288 290 291 291 291 291 291 291 290 290 290 290 290 289 289 288 288 288 288 288 288 289 288
283 282 281 281 281 280 280 280 280 280 280 280 280 280 280 280 280 280 280 280 280 280 280 280 279 279 279 279 279 279 279 278 278 278 278 278 278 277 278 277 277 277 276 276 276 276 275 275 275 275 275 275 275 275 275 275 277 278 279 280 282 283 286 288 290 290 291 291 291 291 291 290 290 290 290 290 289 289 288 287 287 287 287 288 288
282 282 280 280 280 280 279 279 279 279 279 279 280 280 279 279 279 279 279 279 279 279 279 279 279 279 279 279 279 279 279 278 278 278 278 278 278 278 277 277 277 277 277 276 276 276 276 275 275 275 275 275 274 274 274 274 275 276 277 278 280 281 283 286 288 290 290 291 291 291 291 291 291 290 290 290 289 289 288 287 287 287 286 287 287
281 281 280 279 279 279 279 279 279 279 279 279 279 279 279 279 279 279 278 278 278 278 278 279 279 279 279 279 278 278 278 278 278 278 278 278 278 278 277 277 277 277 277 276 276 276 276 275 275 275 274 274 274 274 273 273 274 275 275 276 278 279 281 283 286 288 289 290 290 290 291 291 291 291 290 290 289 289 289 288 287 287 286 286 286
280 279 279 279 278 279 279 278 278 278 278 278 278 278 278 278 278 278 277 277 277 277 277 278 278 278 278 278 278 278 278 278 278 277 277 277 277 277 277 277 277 277 277 276 276 276 276 275 275 275 274 274 274 273 273 273 273 273 274 275 276 277 279 280 283 286 288 289 290 290 290 291 291 290 290 290 290 289 289 288 288 288 287 286 286
279 279 278 278 278 278 278 278 278 278 278 278 278 278 277 277 277 277 276 276 276 276 276 277 277 277 277 278 278 277 278 278 277 277 277 277 277 277 277 277 277 277 277 276 276 276 275 275 275 275 274 274 273 273 273 272 272 272 273 273 274 275 277 279 280 283 286 288 289 289 290 290 290 290 290 290 290 290 289 289 288 288 288 287 287
279 278 278 278 278 277 277 277 277 277 277 277 278 277 277 277 276 276 276 276 276 276 276 276 276 276 277 277 277 277 277 277 277 277 277 277 276 276 276 276 276 276 276 276 275 275 275 275 275 274 274 273 273 273 272 272 272 272 272 273 273 274 275 277 279 280 283 286 288 289 289 290 290 290 290 290 290 290 289 289 288 288 288 288 288
278 278 278 277 277 277 277 277 277 277 277 277 277 277 276 276 275 275 275 275 275 275 275 276 276 276 276 276 276 276 276 276 276 276 276 275 275 275 275 275 275 275 275 274 274 274 274 274 274 274 274 273 272 272 272 272 271 271 272 272 272 273 274 276 277 279 280 283 286 288 289 289 289 289 290 290 290 290 290 289 289 288 288 288 288
278 278 277 277 276 276 276 276 276 276 276 277 277 276 275 275 275 275 275 275 275 275 275 275 275 275 275 275 275 275 275 275 275 274 274 274 274 274 274 274 274 274 274 274 273 273 273 274 274 274 273 272 272 272 271 271 271 271 271 272 272 273 274 275 276 277 279 280 283 286 288 288 289 289 289 289 289 290 290 289 289 289 289 288 288
278 278 277 276 276 276 276 276 276 276 276 276 276 275 275 275 274 274 274 274 274 274 274 274 274 273 274 274 274 274 274 273 273 273 273 273 273 273 273 273 273 273 273 273 273 273 273 273 274 274 273 272 272 271 271 271 271 271 271 271 272 273 273 274 275 276 278 279 281 283 286 288 288 288 289 289 289 289 289 289 289 289 289 289 288
277 277 276 276 276 276 276 276 276 276 276 276 276 275 275 274 274 274 274 274 273 273 273 273 273 273 273 273 273 273 272 272 272 272 272 272 272 272 272 272 272 272 272 272 272 272 272 273 273 273 273 272 271 270 270 270 270 271 271 271 272 273 274 274 275 275 276 277 279 281 283 285 287 288 288 289 289 289 289 289 289 289 289 289 288
277 276 276 276 275 275 275 275 275 275 275 276 275 275 274 274 273 273 273 273 273 272 272 272 272 272 272 272 272 271 271 271 271 271 271 271 271 270 271 271 271 271 271 272 272 272 272 273 273 272 272 271 271 270 270 270 270 270 270 271 271 272 273 274 275 275 275 276 278 279 281 282 285 287 288 288 288 289 289 289 289 289 289 289 288
276 276 276 275 275 275 275 275 275 275 275 275 274 274 273 273 273 273 273 273 272 272 272 272 272 272 271 271 270 270 270 270 270 270 270 270 270 270 270 271 271 271 271 271 272 272 272 272 272 271 271 270 270 270 269 269 270 270 271 271 271 272 273 273 274 275 275 276 277 278 279 281 282 284 286 287 288 288 289 289 289 289 289 289 289
276 275 275 275 275 275 274 274 275 275 274 274 273 273 273 273 273 272 272 272 272 271 271 271 271 271 270 270 270 270 270 270 269 269 269 269 270 270 270 270 270 271 271 271 271 271 271 271 271 271 270 270 269 269 269 269 270 271 272 272 273 273 274 274 275 275 276 277 277 277 278 279 281 282 284 286 287 288 288 288 289 289 289 289 289
276 275 275 275 274 274 274 274 274 274 273 273 272 272 272 272 272 272 271 271 271 271 270 270 270 270 270 270 270 269 269 269 269 269 269 269 269 269 270 270 270 270 271 271 271 271 271 271 270 270 269 269 269 268 269 270 270 271 272 272 273 274 275 276 276 276 277 277 277 277 277 278 279 280 282 283 285 287 288 288 288 289 289 289 289
276 275 275 274 274 274 274 273 273 272 272 272 272 272 272 271 271 271 270 270 270 270 270 269 269 269 269 269 269 268 268 268 269 269 269 269 269 269 269 270 270 270 270 270 270 270 270 270 269 269 269 268 268 268 268 269 270 271 272 272 273 274 275 276 276 276 277 277 277 277 277 278 278 279 280 281 283 285 286 287 288 288 288 288 289
275 275 274 274 274 274 273 272 271 271 271 271 271 271 271 270 270 270 269 269 269 269 269 269 269 268 268 268 268 268 268 269 269 268 268 268 269 269 269 269 269 269 269 269 269 269 269 269 269 268 268 268 268 268 268 269 270 271 271 272 273 274 275 275 276 276 277 277 277 277 277 278 278 278 279 280 281 282 284 286 287 287 288 288 288
275 274 274 274 273 272 272 271 271 271 271 271 271 270 270 269 269 269 268 268 268 268 268 268 268 267 267 267 268 268 268 268 268 268 268 268 268 268 268 268 268 268 268 268 268 268 268 268 268 268 268 267 267 267 268 269 270 271 272 272 273 274 275 275 276 276 277 277 277 277 277 277 278 278 278 279 280 281 282 284 285 286 287 287 287
274 274 274 273 272 271 271 271 270 271 271 271 270 269 269 268 268 268 268 268 268 268 267 267 267 267 267 267 268 268 268 267 267 267 267 267 267 267 267 267 267 267 267 267 267 267 267 267 267 267 267 267 267 267 268 269 270 271 272 273 273 274 275 275 276 276 276 276 277 277 277 277 277 278 278 279 279 280 281 282 283 284 285 286 287
273 273 273 273 272 271 271 270 270 270 270 270 269 268 268 268 268 268 268 268 267 267 266 266 266 267 267 267 268 267 267 266 266 266 266 266 266 266 266 266 267 267 267 267 267 267 267 267 267 267 267 267 267 267 268 269 270 271 272 273 273 273 274 274 274 274 274 275 276 276 276 276 277 277 278 278 279 279 280 281 282 283 283 284 285
273 273 273 272 271 271 270 270 270 270 270 269 268 268 267 267 267 268 267 267 266 266 266 266 266 267 267 267 266 266 265 265 265 265 265 265 265 265 265 266 266 267 267 266 266 266 266 266 266 266 266 267 267 267 267 268 269 271 271 272 272 272 273 273 274 273 274 274 274 275 275 275 276 277 277 277 278 278 279 281 282 282 283 283 284
273 273 272 271 271 270 270 270 270 270 269 268 268 267 267 267 267 267 266 265 265 265 265 266 266 267 267 266 265 265 265 265 265 265 264 264 264 265 265 265 266 266 266 266 266 266 266 266 266 266 266 266 266 267 267 268 269 270 271 271 272 272 273 273 273 273 273 273 274 274 275 275 275 276 277 278 278 279 279 280 281 282 282 283 283
273 273 272 271 270 270 269 269 269 269 268 267 267 267 267 267 267 266 265 265 265 265 265 266 266 266 266 265 265 265 265 264 264 264 264 264 264 264 265 265 265 265 265 265 265 265 266 266 266 266 266 266 267 267 267 268 270 271 271 272 272 273 273 273 273 273 273 274 274 274 274 275 275 276 277 278 279 279 280 280 281 281 282 282 282
272 272 271 270 270 269 269 269 269 268 267 267 267 266 266 267 266 265 265 265 265 265 265 266 266 266 265 265 265 264 264 264 264 264 264 263 263 264 264 265 265 265 265 265 265 265 265 266 266 266 266 267 267 268 268 269 270 271 272 272 272 272 272 272 273 273 273 274 274 274 274 274 275 275 276 277 278 279 280 280 281 281 281 282 282
272 272 271 270 269 269 269 268 268 267 267 266 266 266 266 266 265 265 265 265 265 265 265 266 266 265 265 264 264 264 264 264 263 263 263 263 263 264 264 264 265 265 265 265 265 265 265 266 266 267 267 268 268 268 269 269 270 271 271 272 272 272 272 272 272 273 273 274 274 274 275 275 275 275 276 277 278 278 279 280 280 281 281 281 281
271 271 270 269 269 269 268 268 267 267 266 266 266 266 266 265 265 264 264 264 264 265 265 265 265 264 264 264 263 263 263 263 263 263 263 263 263 264 264 264 264 264 265 265 265 265 266 266 267 267 267 267 267 267 268 268 269 269 270 271 271 271 272 272 272 272 272 273 274 275 275 275 275 275 276 277 277 278 278 279 279 280 280 280 280
270 270 269 269 268 268 268 267 267 266 266 265 265 265 265 265 265 264 264 264 264 265 265 265 264 264 263 263 263 262 262 262 262 262 263 263 263 263 263 264 264 264 265 265 265 265 266 266 266 266 266 266 266 267 267 268 268 268 269 270 270 271 271 270 270 270 271 272 273 274 275 275 275 275 276 276 277 277 278 278 278 279 279 279 279
269 269 269 268 268 268 267 266 266 265 265 265 265 265 264 264 264 264 264 264 264 265 264 264 263 263 263 262 262 261 261 261 262 262 262 263 263 263 263 263 264 264 264 264 265 265 265 265 265 265 266 266 266 267 267 268 268 268 268 269 269 270 270 269 269 270 271 271 273 274 275 275 275 275 276 276 276 277 277 278 278 278 278 279 279
268 268 268 267 267 267 266 265 265 265 264 264 264 264 264 264 264 264 263 264 264 264 264 263 263 262 262 261 261 261 261 261 261 262 262 262 262 263 263 263 263 263 264 264 264 265 265 265 265 265 266 266 266 267 267 268 268 268 268 268 269 269 269 269 269 269 270 271 273 274 274 274 275 275 275 275 275 276 276 277 277 278 278 278 279
268 267 267 267 267 266 265 265 264 264 264 264 264 263 264 264 264 263 263 264 264 264 263 262 262 262 261 261 260 260 260 261 261 261 262 262 262 262 262 263 263 263 264 264 264 264 265 265 265 266 266 266 266 267 267 268 268 269 269 268 269 269 269 269 269 269 270 271 272 273 273 273 274 274 274 274 275 275 275 276 276 277 277 278 278
267 267 267 266 266 265 265 264 264 263 263 263 263 263 263 263 263 263 263 264 263 263 262 262 261 261 261 260 260 260 260 260 261 261 261 262 262 262 262 262 263 263 264 264 264 264 265 265 266 266 266 267 267 267 267 268 268 269 269 269 269 269 269 269 269 269 269 270 271 272 272 272 272 272 273 274 274 275 275 275 275 276 277 278 278
266 266 266 266 265 265 264 263 263 263 263 263 263 263 263 263 263 263 263 263 263 262 261 261 261 260 260 260 259 260 260 260 260 260 261 261 261 262 262 262 263 263 264 264 264 264 265 265 266 266 267 267 267 267 268 268 269 269 269 270 270 270 269 269 269 269 269 270 270 271 271 271 271 271 272 273 274 275 275 275 275 276 277 277 276
266 266 265 265 265 264 264 263 263 262 262 262 263 263 263 262 262 262 262 262 262 262 261 261 260 260 259 259 259 259 259 259 259 260 260 261 261 261 261 262 262 263 263 263 264 265 265 266 266 266 266 266 267 267 268 268 269 269 269 269 269 269 269 269 269 269 269 269 270 270 270 270 270 270 271 272 273 274 275 274 274 275 276 275 275
265 265 265 264 264 264 263 263 262 262 262 262 262 262 262 262 262 262 261 261 262 261 260 260 260 259 259 259 259 259 259 258 259 260 260 260 259 259 260 261 261 262 262 262 263 265 265 265 265 265 265 265 266 266 267 267 267 267 268 268 268 269 269 270 270 269 269 269 269 269 270 270 270 270 271 272 273 274 274 274 273 273 274 274 274
Wind_Speed
17 22 24 26 27 29 29 31 33 34 36 37 37 37 37 37 38 40 41 43 43 40 39 40 40 39 36 34 29 28 30 27 22 18 12 7 6 13 17 23 28 32 35 36 38 39 39 39 39 38 38 39 40 40 39 37 37 36 35 34 34 31 29 29 31 31 26 18 14 15 16 17 18 19 20 21 21 21 21 22 23 23 23 22 23
16 20 22 24 25 27 28 29 31 32 33 35 35 35 35 36 36 37 38 41 42 39 35 34 35 33 30 29 26 25 30 30 29 29 25 18 11 6 6 7 14 22 29 31 35 38 38 38 39 39 40 40 39 38 38 37 36 36 35 33 33 32 31 31 34 31 24 20 16 11 8 10 14 16 19 20 21 21 22 23 24 23 23 23 23
12 15 19 22 23 25 26 27 29 28 30 32 33 34 35 35 34 34 36 37 39 39 37 33 31 30 27 27 26 26 30 30 29 31 31 27 21 17 13 10 7 10 17 21 25 30 34 37 38 39 40 40 38 34 34 35 35 36 37 36 33 30 29 33 38 34 26 23 17 8 5 5 7 12 17 20 21 23 24 24 24 23 22 22 23
9 11 15 19 20 22 24 24 26 27 28 30 32 32 33 33 33 32 33 35 36 37 36 34 33 32 28 26 27 28 31 32 30 31 34 33 30 27 23 19 16 10 8 11 16 19 25 30 34 37 39 40 38 35 34 34 35 35 36 37 35 30 26 32 39 37 32 27 14 3 3 3 4 8 14 19 22 23 24 23 23 23 23 23 24
7 8 11 16 18 19 21 22 23 25 26 27 29 30 30 31 31 30 30 32 34 34 33 34 35 37 35 33 35 35 35 36 36 36 38 37 34 32 29 27 26 20 11 6 7 11 14 19 25 31 35 38 39 38 37 35 35 35 35 36 37 35 30 31 36 35 34 35 24 9 5 2 3 7 11 15 20 22 22 22 23 24 24 24 25
6 7 9 13 16 18 20 21 22 23 24 25 26 27 28 29 30 30 29 29 31 32 32 32 34 37 38 36 35 34 32 33 32 32 34 34 31 32 30 28 30 29 22 14 9 6 8 11 14 20 26 32 37 37 36 35 35 35 34 34 35 36 33 29 33 35 32 35 33 22 15 8 6 12 8 5 12 19 21 22 23 24 25 25 26
7 8 11 13 15 16 18 19 21 21 22 24 25 26 26 27 29 29 28 28 29 30 31 32 31 33 33 32 30 28 26 25 26 26 28 28 28 30 31 29 29 31 30 25 19 13 7 7 10 13 17 24 32 34 34 35 36 35 34 35 34 32 31 29 32 35 31 33 34 28 19 11 11 17 11 4 5 11 18 22 23 24 24 26 27
6 7 11 15 16 16 17 17 18 19 21 24 25 25 26 26 27 26 27 27 27 28 30 30 30 29 28 27 26 25 25 25 25 26 26 26 26 29 32 31 30 31 32 30 26 22 17 12 9 9 11 16 24 30 34 34 35 35 34 34 33 31 32 30 31 34 33 34 35 32 22 13 15 22 22 16 7 4 11 16 21 25 27 29 29
7 7 10 15 18 19 18 17 17 17 19 21 22 23 24 24 25 25 25 25 26 27 28 28 28 27 27 25 23 22 22 23 24 27 27 27 28 30 31 32 32 32 32 31 28 27 25 22 17 13 10 10 15 23 31 33 33 35 35 35 34 34 35 32 30 34 36 33 32 34 27 16 15 19 23 21 10 5 7 7 15 21 23 31 34
8 9 11 14 17 19 19 19 19 18 18 19 20 20 20 22 23 24 24 24 24 25 26 27 27 27 27 26 24 22 21 21 21 24 28 30 32 33 32 31 30 31 32 32 31 30 28 27 25 22 18 13 10 13 20 28 33 36 37 38 37 35 36 35 33 33 35 34 31 32 28 19 15 12 16 20 12 8 8 7 15 19 17 26 35
6 9 11 13 15 16 17 18 19 19 20 19 19 19 19 19 19 20 22 22 23 23 24 25 25 26 26 25 25 24 24 24 23 23 26 30 33 35 34 31 29 28 29 31 33 34 32 30 29 27 25 21 15 13 13 18 26 33 37 38 39 37 36 35 35 33 33 34 32 30 30 28 23 18 20 26 17 9 8 5 14 23 20 22 30
5 6 9 11 13 14 15 17 19 20 21 21 20 19 18 17 15 16 19 20 21 22 23 23 23 23 24 25 25 24 24 24 23 23 24 25 27 30 32 31 31 30 29 31 34 36 35 33 32 30 29 27 23 19 16 15 17 24 32 36 37 38 37 35 35 36 34 34 35 34 33 33 33 28 25 29 25 19 13 6 10 19 17 18 24
4 4 7 9 11 13 15 17 19 21 23 23 22 21 19 16 13 14 16 17 18 20 21 22 22 21 21 22 23 23 23 23 21 21 22 21 21 22 24 25 28 30 31 32 34 35 35 34 33 31 30 29 28 25 21 18 17 18 25 33 36 37 39 37 37 39 38 37 37 36 35 34 35 32 26 27 27 23 17 9 10 15 12 13 20
5 5 6 9 11 13 15 16 19 22 24 25 25 24 22 17 13 13 15 15 15 16 17 18 20 21 21 21 21 21 22 22 21 20 20 20 19 19 18 19 22 26 29 31 33 35 34 33 33 31 29 28 28 26 25 22 19 18 20 26 33 36 39 40 40 41 41 40 38 35 36 36 36 35 32 30 28 26 21 14 11 9 7 8 13
5 6 8 11 13 14 16 18 20 23 26 27 27 27 26 20 14 15 16 15 15 16 15 15 16 17 20 21 21 20 19 20 21 21 21 20 20 21 20 19 19 22 25 29 32 35 35 33 32 31 30 28 27 26 25 25 23 21 20 22 28 34 36 38 41 41 40 41 41 38 37 37 36 35 35 35 33 31 29 25 19 10 4 4 6
6 6 8 12 15 16 17 19 22 25 27 28 28 29 30 23 16 17 18 16 16 16 15 15 14 14 16 18 20 21 20 20 20 21 22 22 22 23 23 22 21 21 22 25 29 33 35 36 34 31 29 27 26 26 25 25 25 25 23 22 24 30 33 35 38 39 39 40 41 41 39 38 38 35 34 35 36 35 33 32 29 20 10 5 4
6 6 8 12 14 16 19 21 24 26 28 28 27 28 28 21 17 18 19 18 17 16 15 16 15 15 15 15 16 18 20 21 21 20 20 21 23 25 25 25 25 24 23 23 25 28 31 35 35 33 30 27 25 25 25 25 25 26 25 24 24 26 30 34 36 37 40 40 39 40 40 40 39 36 35 35 34 35 34 34 35 32 23 10 4
6 7 10 13 14 17 20 22 25 26 26 25 24 25 24 18 17 19 19 18 18 16 16 16 16 17 17 16 16 16 17 19 21 22 21 21 22 24 25 27 27 26 26 26 25 26 27 30 32 33 31 28 26 25 25 25 25 26 27 26 24 24 26 32 35 36 39 39 38 39 39 40 40 37 37 37 34 34 35 36 37 37 33 22 11
6 6 8 11 14 18 21 22 23 23 23 24 23 23 24 21 20 21 21 20 19 19 19 19 19 20 19 18 18 17 17 17 18 20 22 23 24 24 24 27 28 28 28 28 28 28 28 28 29 30 30 30 28 27 26 26 25 26 27 27 26 24 24 29 33 35 37 37 37 38 39 40 40 38 36 36 35 36 36 36 37 36 36 34 25
5 5 8 12 17 20 19 18 20 21 21 23 23 24 25 24 23 24 23 23 23 24 24 23 23 23 22 22 21 20 20 18 17 17 19 23 25 26 26 26 27 28 29 29 29 30 30 29 28 27 27 28 30 30 28 27 26 26 26 27 27 25 24 27 30 33 35 36 36 39 40 43 42 39 37 37 36 37 36 36 36 36 37 37 34
6 6 8 13 18 19 16 16 19 20 21 23 22 22 21 21 21 22 23 24 25 25 26 26 26 25 25 26 24 23 21 19 19 19 20 21 23 24 27 28 27 27 28 29 30 31 31 30 29 27 26 26 28 29 28 27 26 26 27 27 27 27 26 27 27 29 32 34 36 38 40 43 42 39 39 39 37 37 36 36 35 35 36 36 34
6 7 10 15 17 15 14 15 17 18 21 22 19 17 16 17 18 19 21 22 23 25 26 26 27 26 26 26 25 24 23 22 22 22 23 23 23 23 25 26 28 29 28 28 29 30 31 30 29 28 26 26 27 28 27 26 27 27 28 28 28 27 27 28 27 27 28 30 33 36 38 40 40 38 39 39 38 38 36 36 37 36 36 37 35
7 9 13 16 15 13 13 15 16 18 21 19 15 14 16 16 17 18 20 21 22 24 25 26 27 27 27 27 28 28 28 28 28 27 27 26 25 25 24 24 26 28 28 28 29 31 32 31 29 28 27 27 26 27 27 27 28 28 28 29 29 28 28 29 28 28 27 27 29 32 35 38 37 36 38 40 39 38 36 36 38 38 37 37 37
8 10 15 16 13 12 14 15 16 19 21 17 14 15 16 15 16 18 20 21 22 23 24 26 27 28 28 29 30 31 31 32 32 32 30 27 25 25 24 24 24 25 26 28 31 32 32 31 30 29 27 27 26 26 26 28 29 29 28 29 28 28 28 29 29 28 27 26 27 29 32 34 35 34 36 39 38 38 37 37 37 38 38 38 37
9 11 13 11 9 11 14 16 18 21 22 19 17 16 16 16 18 20 21 22 22 22 23 24 25 27 28 29 30 31 31 30 29 28 26 25 25 26 25 24 24 26 28 30 31 32 31 31 31 30 28 26 25 25 26 28 30 30 29 29 28 26 27 29 30 30 28 27 26 28 30 30 30 32 34 36 37 37 37 37 37 36 37 38 36
11 12 9 6 8 12 14 17 19 21 23 22 19 16 17 18 20 21 22 22 22 22 24 24 25 26 27 28 27 27 27 27 26 26 27 29 30 31 30 29 28 29 30 30 30 30 31 32 33 32 29 26 25 25 26 27 30 30 29 29 28 26 26 28 30 30 29 28 27 28 30 30 28 29 32 34 35 36 37 37 37 36 36 36 34
12 10 6 6 10 13 16 18 20 21 25 23 18 16 19 21 22 22 22 22 22 24 25 25 25 26 26 26 25 26 28 29 30 32 33 34 33 32 32 32 32 32 32 32 32 32 33 33 34 32 29 27 25 25 26 27 28 30 30 29 28 28 28 28 29 29 29 28 27 27 27 29 30 30 31 32 33 34 35 36 38 38 35 34 32
12 8 5 7 10 13 17 19 21 24 27 24 17 18 22 23 24 25 25 25 24 24 25 25 26 25 25 25 25 27 29 31 32 33 33 32 31 31 31 32 34 35 36 37 36 36 35 34 33 31 29 28 26 25 25 26 27 30 31 29 28 27 29 29 29 29 28 28 29 28 26 26 29 32 33 32 31 32 33 34 37 38 35 33 32
11 6 6 8 9 13 17 21 23 26 25 20 17 20 23 24 26 28 27 26 25 25 26 25 24 23 23 24 26 28 31 32 32 31 31 31 32 33 33 33 33 35 37 38 38 37 35 32 29 27 26 26 27 27 26 26 27 30 32 31 29 29 29 30 30 30 30 29 28 29 28 26 25 28 33 35 34 33 32 32 34 35 35 33 31
8 6 8 9 11 15 19 22 23 22 20 19 19 23 25 26 28 27 26 25 24 25 25 24 23 23 24 26 29 31 31 30 29 30 32 35 35 33 31 30 31 32 34 35 36 34 30 26 24 23 25 26 27 30 30 27 26 27 29 31 32 31 31 31 32 32 31 30 29 28 29 28 26 26 28 33 36 35 34 34 34 34 34 33 31
6 7 9 9 13 17 20 21 20 19 20 22 24 26 26 26 26 24 24 24 24 24 25 24 25 26 28 29 29 28 27 27 30 33 34 33 30 29 29 29 30 30 30 28 27 25 23 22 23 24 26 28 29 31 31 28 25 25 27 30 32 33 32 31 31 31 30 29 29 29 28 28 27 26 25 27 32 36 36 36 36 36 35 35 34
7 9 10 11 14 18 19 18 17 19 22 25 26 27 25 24 23 23 24 25 25 26 26 27 28 28 28 27 26 26 28 30 32 30 28 27 28 29 30 30 29 27 26 25 24 24 24 24 25 26 28 30 31 30 28 26 26 27 27 29 32 33 32 31 31 30 30 28 27 28 28 28 27 26 25 24 25 30 35 37 37 37 36 36 36
10 11 12 14 17 19 18 17 18 22 25 25 25 24 22 22 23 25 26 27 27 28 28 28 28 26 26 25 26 28 29 28 26 25 25 28 30 30 29 27 26 25 24 25 25 26 26 26 26 28 29 30 31 30 26 25 27 28 28 29 31 31 31 30 28 27 27 26 25 25 26 27 26 26 26 24 23 23 26 32 36 37 37 36 36
12 12 14 18 20 19 18 18 22 25 26 24 21 21 22 23 26 28 29 29 30 29 28 26 24 25 26 27 27 27 25 24 24 25 27 28 27 27 26 25 25 25 24 25 25 26 28 29 29 29 29 30 31 30 27 26 27 29 28 29 30 31 31 30 29 27 27 26 26 25 24 25 25 25 25 25 24 22 21 23 28 33 36 36 36
12 13 17 20 20 17 18 21 25 26 25 22 21 22 24 26 28 30 30 30 29 26 23 23 24 26 26 26 25 24 23 24 25 25 25 26 26 26 27 28 28 28 27 27 27 28 29 29 28 28 28 30 31 29 26 26 27 28 28 28 29 31 31 30 28 27 25 25 24 24 25 25 24 25 25 24 24 24 22 21 21 24 28 31 34
13 16 20 21 18 17 21 24 26 27 24 21 22 24 26 28 30 31 29 26 23 22 23 25 26 25 25 24 23 22 21 23 24 25 26 27 27 28 29 29 29 29 28 28 27 27 27 27 27 27 27 30 30 27 26 26 27 27 27 28 29 29 27 25 23 21 21 21 21 22 25 26 25 24 24 22 21 21 22 23 23 22 22 24 27
18 22 23 20 18 20 23 26 28 27 23 21 24 26 27 30 31 28 24 21 20 23 26 26 25 24 24 22 20 20 22 24 26 27 27 28 28 28 28 28 27 27 26 26 25 25 25 26 26 26 26 28 29 27 26 26 26 26 27 27 26 23 21 19 18 18 20 22 23 24 25 26 26 24 23 21 21 21 22 23 24 24 24 23 24
21 24 23 19 19 21 24 26 28 26 22 23 27 27 28 30 27 22 20 20 24 26 26 25 25 24 21 19 20 23 25 26 26 26 27 27 28 28 27 26 25 24 24 25 25 25 25 25 26 26 26 26 28 28 27 27 26 26 26 26 25 23 21 20 18 18 21 23 23 24 24 24 24 24 22 21 22 23 24 24 23 23 24 24 25
23 24 20 17 19 22 24 27 26 23 23 26 28 28 29 27 22 18 20 23 26 26 26 27 26 22 19 20 24 26 26 26 26 26 27 27 27 27 27 25 25 25 26 26 25 25 25 25 25 26 26 26 28 29 28 26 25 24 23 23 24 23 22 19 19 20 21 22 22 22 22 22 23 22 22 22 22 23 25 25 24 22 22 25 27
24 24 19 17 19 22 25 26 23 21 24 27 27 28 27 23 19 20 23 25 26 26 27 28 25 20 20 24 25 26 27 27 27 27 28 28 27 26 27 27 26 26 25 25 25 24 25 26 25 26 26 26 27 28 28 27 25 24 22 21 20 20 18 16 16 17 18 19 20 20 20 20 21 22 22 22 22 22 24 26 25 23 22 24 24
24 23 19 19 20 22 24 25 23 22 25 26 25 25 24 21 19 21 25 27 27 27 28 26 22 21 23 25 25 26 28 28 27 28 28 28 26 26 27 26 25 25 24 25 25 25 25 25 25 25 26 26 26 27 27 25 23 22 20 17 16 15 14 14 16 16 17 18 19 21 21 21 21 22 22 22 22 22 23 25 26 26 25 22 20
24 20 17 19 22 24 25 24 22 22 25 26 24 23 23 20 19 22 27 28 28 28 27 24 21 22 25 26 26 28 28 28 28 28 28 28 27 25 25 24 24 24 24 23 23 23 24 24 24 23 22 22 22 21 19 16 15 16 15 13 13 13 13 14 16 17 18 19 20 21 22 22 21 21 20 20 21 21 21 23 23 23 23 21 19
21 17 16 19 22 24 25 24 22 22 25 25 23 23 22 20 20 24 27 28 28 28 26 22 21 23 25 26 27 29 29 28 28 27 27 27 25 23 23 23 23 22 22 20 20 21 21 21 19 18 19 20 21 20 18 14 14 14 14 13 13 13 13 13 13 14 15 15 15 16 18 19 19 17 17 17 18 18 19 20 20 19 19 19 20
17 15 18 20 22 23 23 23 23 24 25 24 23 23 22 21 22 25 26 27 28 26 22 20 22 24 25 27 29 29 29 28 27 26 25 24 23 22 23 23 21 20 19 18 18 18 17 17 17 18 20 22 22 21 19 17 16 15 13 13 12 12 13 14 14 13 14 16 16 15 16 18 16 14 14 14 14 15 16 16 16 16 16 17 19
16 18 21 22 23 23 21 21 22 25 26 25 23 22 23 24 24 24 26 27 26 22 20 21 23 25 26 28 29 29 28 26 24 23 22 22 22 22 21 20 20 19 18 17 16 16 17 17 17 19 21 22 22 20 19 18 16 15 13 13 14 14 14 15 14 13 14 15 15 16 15 14 13 12 11 11 11 12 13 13 13 14 14 16 19
18 22 24 24 23 21 19 20 22 25 27 25 24 24 26 25 23 25 27 26 21 18 20 22 23 25 27 28 28 27 26 24 22 21 21 21 21 21 20 19 19 18 18 17 17 17 17 18 18 19 20 22 23 23 22 19 17 16 15 14 14 14 14 15 15 13 12 11 8 10 10 10 9 9 8 8 9 10 10 10 11 12 13 15 18
21 24 25 24 22 20 18 19 22 25 26 25 25 27 26 23 24 27 27 22 18 17 20 21 23 25 27 26 26 25 24 23 22 21 21 21 20 20 20 20 19 18 18 18 17 17 17 16 17 20 21 22 22 23 23 21 18 16 14 13 13 14 14 13 15 14 12 11 5 4 6 6 6 6 6 7 8 8 8 9 10 11 13 15 17
23 24 24 22 21 20 19 19 22 26 26 24 26 28 24 23 26 27 22 19 18 18 19 20 23 25 25 24 24 23 22 22 22 21 20 21 21 21 21 20 19 18 18 18 17 17 16 17 19 20 20 20 20 21 22 21 19 17 16 16 17 15 11 11 15 14 13 11 7 4 5 5 5 6 6 6 7 7 7 8 10 11 13 15 17
24 24 23 22 22 22 20 21 24 26 25 25 26 25 23 24 26 23 20 21 21 19 18 21 23 24 25 24 22 21 21 22 22 22 21 20 19 19 20 22 22 20 18 18 18 18 19 21 21 18 16 17 17 18 18 18 17 16 15 14 13 10 8 11 14 13 11 10 8 5 5 5 5 5 6 6 6 6 6 7 9 11 14 17 18
24 24 23 23 23 23 21 22 25 26 25 24 24 24 24 24 23 22 24 24 20 17 18 21 22 23 24 22 20 20 21 22 22 22 21 21 20 19 19 20 21 20 18 18 19 19 20 20 17 16 16 17 17 16 16 16 16 15 12 12 12 10 10 12 13 9 8 8 7 7 6 5 5 6 6 8 7 5 6 7 9 12 15 16 16
24 23 23 24 24 23 22 23 26 26 25 24 24 24 24 23 23 25 27 23 17 16 19 21 22 23 21 18 18 20 22 22 21 20 20 21 24 24 20 17 17 18 19 19 19 18 17 16 16 17 18 18 17 17 16 16 18 17 15 14 15 16 15 14 11 8 7 6 6 6 6 5 5 6 7 9 8 5 7 8 10 12 14 14 15
Wind_Direction
26 27 27 27 27 27 27 27 26 26 25 24 24 23 22 22 22 22 21 21 21 19 17 17 16 14 13 15 13 13 22 29 28 22 13 352 269 236 229 224 220 215 213 212 210 210 209 208 209 208 207 205 205 205 202 201 199 196 194 191 189 187 187 189 186 178 166 158 165 177 185 191 196 200 202 202 200 200 203 206 206 205 205 202 198
26 26 25 25 26 26 27 27 26 25 24 23 24 23 23 23 23 22 21 23 24 22 19 16 16 14 12 13 11 13 22 25 24 24 23 22 23 360 319 269 240 226 222 219 215 213 211 209 209 209 209 207 207 207 206 204 200 197 194 190 189 189 188 187 183 176 167 163 161 158 172 188 197 201 203 203 203 201 203 207 210 208 207 206 205
22 21 19 20 22 24 25 26 26 25 24 23 24 23 24 24 23 22 22 24 24 25 25 19 15 15 15 17 17 18 22 21 19 20 21 23 26 24 15 1 327 263 241 232 223 217 214 212 211 211 211 208 206 205 205 205 202 199 197 192 188 189 190 188 186 185 176 164 155 152 167 179 205 212 208 205 204 205 206 208 210 211 210 210 211
15 13 13 15 17 21 23 23 24 24 23 22 22 23 23 23 24 23 23 24 24 26 27 24 21 20 17 19 23 21 20 17 13 13 15 15 17 20 21 18 9 346 290 259 243 232 222 217 215 214 213 210 206 205 205 206 205 201 199 196 190 186 187 188 190 192 185 169 150 109 127 149 219 214 206 208 207 207 209 210 210 212 212 212 213
8 4 3 8 12 16 20 22 23 23 23 22 22 22 22 23 24 24 24 24 24 26 27 27 27 25 21 20 22 19 16 14 10 7 9 8 8 13 16 17 16 13 5 332 282 263 246 232 223 217 215 212 208 208 208 208 207 205 202 199 195 191 189 189 192 196 195 187 177 157 134 170 234 184 185 209 212 209 210 211 213 214 214 214 214
4 357 354 1 6 12 16 19 20 21 21 20 19 20 21 22 23 24 24 24 24 25 26 27 30 30 27 24 21 16 13 12 8 3 4 3 2 6 10 14 16 15 17 18 5 325 280 263 248 231 222 215 212 211 210 208 208 207 205 202 202 200 194 189 192 198 202 198 193 188 187 197 183 160 160 209 212 212 213 211 213 215 216 218 217
1 356 354 357 1 5 10 14 16 16 15 13 14 15 16 18 20 22 22 23 23 24 26 28 30 32 33 31 27 21 14 9 5 2 2 359 358 4 9 11 13 12 13 17 20 14 347 304 282 260 242 227 218 214 212 211 210 209 208 207 207 205 199 195 194 197 202 205 204 202 203 211 188 173 172 160 184 216 217 213 214 214 215 219 220
358 356 357 358 357 357 360 6 10 10 8 7 6 8 9 11 14 16 19 21 21 21 23 27 29 31 33 35 33 28 20 12 8 6 4 359 359 6 10 11 11 9 7 11 17 18 14 0 335 301 275 251 234 224 219 216 213 211 211 212 212 210 207 205 200 198 202 208 209 209 215 225 202 193 193 184 161 198 213 216 217 214 215 218 220
355 354 357 1 1 359 355 355 358 359 360 360 359 0 1 3 5 8 12 16 17 18 20 22 25 27 29 31 31 29 24 18 15 12 8 4 3 8 12 11 11 8 4 6 10 12 11 8 2 350 328 293 258 241 231 224 219 216 215 214 215 215 213 212 209 206 207 210 211 212 219 219 201 200 198 190 177 170 191 213 210 210 219 221 220
355 352 353 357 358 359 356 350 346 345 346 347 348 350 353 355 358 1 5 8 11 14 17 18 19 21 22 24 24 23 21 20 19 17 13 11 8 8 11 10 9 7 3 2 4 4 2 0 360 357 353 340 304 272 252 237 228 223 221 218 217 217 217 216 216 215 215 215 214 213 215 208 193 194 196 194 191 186 192 202 197 198 213 220 219
350 346 346 347 347 349 349 344 339 334 332 332 334 338 341 345 351 356 359 1 4 6 11 14 15 16 16 16 17 16 15 15 16 16 14 13 11 8 7 6 6 5 2 0 2 1 357 353 352 350 350 349 340 323 299 267 245 232 226 222 220 219 219 219 219 220 221 221 221 219 217 211 204 204 199 195 193 190 189 186 197 202 209 216 218
336 332 328 329 332 334 332 333 334 330 325 323 324 326 328 334 341 350 354 356 359 0 3 7 9 12 11 10 10 9 9 10 11 12 13 14 13 9 5 2 360 358 358 359 1 1 358 353 349 346 343 343 341 337 329 312 283 253 235 226 222 222 222 221 222 222 223 224 224 224 223 221 219 219 212 202 200 199 192 180 189 196 207 220 219
300 297 303 306 312 319 322 326 333 335 330 324 320 317 318 322 330 341 347 350 353 356 358 1 2 3 4 5 5 3 2 4 4 5 8 10 11 10 5 360 355 353 354 357 358 360 359 354 350 347 342 337 335 334 332 328 319 293 260 238 227 225 225 224 224 224 224 226 227 227 226 226 225 225 224 217 211 206 199 190 180 187 201 217 216
276 274 283 291 301 313 319 324 333 339 338 331 324 317 312 310 319 330 336 340 343 348 352 355 356 355 355 355 356 356 355 355 354 355 357 359 1 2 360 356 352 349 350 352 355 357 357 354 350 347 344 338 332 330 329 328 327 320 294 261 240 231 229 228 228 228 227 227 229 229 228 229 228 225 225 224 218 211 204 190 170 183 209 208 209
270 273 276 286 300 313 319 325 332 336 337 334 329 325 316 307 312 323 328 333 333 333 337 341 346 347 347 346 344 345 346 346 346 344 344 347 348 349 348 347 347 346 346 347 349 352 352 352 350 347 344 340 335 332 329 327 326 324 317 292 260 241 233 232 231 230 230 229 228 229 230 231 230 226 223 224 222 218 212 202 185 175 206 216 213
273 271 277 291 304 318 325 327 332 333 331 329 328 329 321 309 311 321 325 330 328 326 326 324 326 330 335 338 336 335 334 335 336 335 335 336 338 340 339 338 339 339 341 343 344 346 347 348 349 348 345 341 338 336 333 331 327 322 320 314 287 256 240 235 234 232 231 230 229 228 230 231 231 228 225 224 225 223 219 213 204 194 193 208 215
285 285 293 304 314 328 333 331 331 329 327 326 329 335 330 313 312 324 327 327 323 321 320 316 312 312 316 322 324 326 327 326 325 325 326 328 329 331 331 331 332 332 333 336 339 342 343 344 345 346 346 343 339 338 336 333 330 322 316 317 308 281 255 242 237 235 232 232 231 229 229 231 232 230 228 228 227 227 223 219 215 210 206 201 196
299 303 313 319 326 336 334 330 330 329 329 332 337 346 343 327 322 328 326 321 316 313 313 312 308 303 305 309 309 310 313 316 317 317 317 317 320 323 323 324 325 325 327 329 332 336 339 340 341 342 341 340 338 337 335 332 328 324 317 314 314 305 279 255 243 238 235 233 231 230 229 231 232 231 230 230 228 229 228 224 221 218 215 215 210
306 312 320 325 331 332 329 330 334 336 339 340 341 343 342 334 328 326 321 317 315 312 309 309 309 306 304 305 303 300 300 301 302 307 310 311 313 315 315 317 319 319 321 323 325 329 333 335 337 337 336 335 334 333 332 329 324 320 319 316 314 314 301 275 256 245 239 235 231 230 229 230 232 231 232 232 229 229 229 228 226 222 219 222 220
312 320 323 326 328 325 327 336 338 339 339 337 335 334 335 335 332 330 329 328 327 323 317 313 313 313 311 308 305 301 299 295 290 290 298 304 309 311 310 311 312 312 315 317 319 322 326 328 330 331 331 330 329 329 329 327 322 317 315 314 312 313 310 295 275 257 245 238 233 232 231 231 232 231 231 232 230 228 228 228 229 227 223 225 224
312 317 318 321 321 319 326 336 335 334 334 331 330 329 332 334 334 335 337 337 337 336 331 325 323 322 319 315 311 307 304 301 296 289 288 293 301 305 308 308 306 306 309 309 312 317 319 321 323 322 323 324 324 324 324 323 320 315 312 310 310 310 307 302 292 273 255 244 237 234 233 233 232 230 229 229 228 227 226 226 227 229 228 228 226
307 312 315 315 314 313 320 326 328 330 328 326 326 329 332 334 334 335 337 338 340 339 337 334 331 329 326 323 320 318 315 312 307 300 294 291 292 297 302 303 302 302 302 302 307 312 313 315 315 314 314 316 319 319 319 318 316 313 310 306 306 307 304 300 297 288 270 253 242 237 235 234 232 229 228 228 228 226 224 224 224 226 228 230 228
309 313 316 314 311 312 317 320 325 327 324 321 320 325 328 331 334 336 336 336 335 334 333 333 331 329 327 325 322 320 318 314 311 306 302 297 295 297 298 296 295 296 296 298 304 307 308 308 307 305 306 309 312 314 315 314 312 309 306 303 300 300 299 296 295 293 284 267 251 241 238 235 232 229 229 229 228 227 224 223 224 224 225 229 229
311 311 313 311 310 316 321 323 326 328 325 317 311 317 323 327 332 332 331 330 330 330 331 330 329 326 323 320 317 315 312 310 307 304 300 299 298 299 300 295 288 287 291 297 302 304 304 303 300 298 299 302 305 309 312 313 311 307 302 299 297 292 290 290 289 289 289 280 263 249 243 239 233 229 229 229 228 227 225 223 224 224 225 227 228
309 310 311 307 308 318 322 325 327 327 325 314 306 314 322 325 328 329 327 327 328 330 330 329 327 323 319 317 314 312 309 307 307 305 303 305 306 307 307 301 292 289 292 295 298 299 300 299 295 292 293 295 298 303 308 310 311 307 301 296 294 288 284 283 283 283 285 285 275 260 251 247 239 232 229 229 227 226 225 224 225 224 224 226 227
310 311 308 301 313 319 322 326 325 326 325 315 306 315 324 323 324 325 324 324 325 326 325 324 322 319 317 316 316 315 314 313 313 313 313 313 312 312 311 307 300 297 295 294 294 295 296 295 291 287 286 288 294 298 302 305 308 306 301 295 291 288 283 280 279 279 279 281 280 272 260 252 246 240 234 231 229 227 226 225 225 225 224 224 224
309 308 305 310 319 320 322 324 323 326 327 317 307 316 324 322 323 324 322 320 318 318 317 317 316 315 313 313 314 315 315 314 313 313 313 312 312 311 311 309 306 302 298 295 294 292 292 291 285 279 279 284 291 296 298 301 304 304 299 293 289 287 285 281 279 278 277 277 277 277 270 257 248 245 243 238 233 229 227 226 227 227 225 223 222
307 304 309 315 318 319 321 323 324 327 325 316 310 319 324 322 322 321 318 315 314 314 314 313 311 309 309 309 310 312 312 312 312 310 309 309 309 309 307 305 303 299 296 294 292 290 289 284 276 271 273 281 289 295 297 296 298 299 295 288 285 284 283 282 281 278 276 274 272 272 274 268 255 248 246 245 240 234 229 228 228 228 225 223 222
307 304 310 314 315 318 320 323 325 327 325 319 318 322 322 319 318 317 314 313 314 315 314 312 309 308 309 310 311 312 311 309 308 307 307 307 306 305 303 302 301 299 295 291 290 290 286 275 266 267 274 284 292 295 296 294 293 293 291 285 281 280 279 279 280 280 278 275 272 270 270 272 268 257 249 246 245 241 235 230 228 228 226 223 222
303 303 309 311 312 316 320 324 327 329 328 324 321 319 317 316 315 315 315 315 317 317 315 313 312 310 311 311 310 310 308 307 305 305 304 304 303 303 304 305 306 307 303 295 288 284 276 264 264 276 286 293 296 297 297 294 287 285 284 283 281 278 275 274 275 276 275 272 271 270 268 268 270 268 259 249 245 244 241 237 233 229 226 223 221
297 305 307 307 312 317 321 323 325 327 326 322 318 316 316 316 316 317 318 319 320 318 315 313 310 309 310 309 309 307 307 306 305 303 302 301 302 303 305 306 307 310 310 302 290 281 273 272 281 290 294 295 296 297 296 291 283 279 277 277 277 275 272 271 270 269 269 270 271 271 269 268 267 268 268 260 249 244 242 242 240 235 230 226 222
305 307 309 313 317 319 320 322 325 326 323 320 317 317 317 318 320 321 320 319 317 314 312 309 307 308 308 309 308 308 307 305 304 303 303 304 304 303 302 302 302 304 306 303 294 287 285 287 291 293 294 295 295 295 292 286 282 279 276 275 274 272 270 266 262 262 263 265 268 269 268 267 264 263 266 268 261 250 243 241 241 240 237 232 227
311 313 317 319 317 317 320 324 327 324 320 318 318 319 320 321 322 320 318 315 313 311 308 306 306 308 309 309 309 308 305 304 304 306 308 308 306 302 300 300 300 301 302 298 293 289 289 291 293 292 292 292 293 292 288 283 281 279 276 274 271 269 269 267 264 262 261 261 263 265 267 266 265 261 259 262 264 261 252 243 240 240 240 239 236
316 317 317 315 314 318 323 325 324 321 318 317 318 319 319 319 319 317 314 312 310 308 307 307 309 311 310 310 309 306 304 305 308 311 311 310 308 304 301 301 301 299 298 295 291 289 289 290 289 288 288 288 288 288 285 280 279 278 275 273 270 268 268 268 267 264 262 261 260 261 263 264 265 264 260 257 257 260 261 253 243 238 237 239 240
318 316 314 313 315 320 323 322 321 319 316 316 318 320 319 318 317 315 312 310 309 309 311 313 312 311 310 309 308 305 305 308 311 312 311 309 307 303 301 301 299 297 295 292 290 289 288 287 286 285 285 285 284 285 283 279 278 276 274 271 269 268 265 262 262 260 258 257 257 258 259 259 259 260 260 259 256 254 256 257 253 244 238 237 238
313 312 312 313 316 319 320 320 320 317 314 315 319 321 319 317 316 313 309 309 311 313 315 314 311 310 310 308 306 306 309 313 313 312 310 307 305 302 301 301 299 297 295 293 291 290 289 287 286 285 284 283 284 283 281 279 277 273 272 271 269 268 267 262 261 263 265 265 261 259 258 257 256 256 255 256 255 254 252 251 251 250 246 242 239
310 310 309 308 311 316 318 319 318 315 312 316 320 320 319 316 313 310 309 312 315 315 313 312 310 309 307 306 309 315 317 315 313 311 309 308 306 304 303 303 300 297 296 294 293 292 290 289 287 286 283 282 284 283 279 278 277 274 274 278 278 278 277 273 270 269 269 268 265 260 258 258 258 258 257 255 254 253 253 250 246 245 246 247 245
310 310 306 303 307 313 317 318 317 312 311 318 321 320 319 315 309 308 313 316 316 314 311 310 309 307 306 311 319 321 317 314 312 311 309 308 307 306 304 303 300 297 296 296 295 294 292 289 287 285 283 281 281 282 280 277 276 276 278 281 283 283 280 277 278 275 269 265 265 263 261 261 262 260 256 255 254 250 249 249 246 243 242 243 245
310 308 302 300 308 314 317 318 315 309 312 319 321 320 318 311 305 311 317 317 314 312 310 309 307 305 308 317 321 319 315 312 310 309 309 308 306 305 304 303 301 298 296 296 296 294 292 291 289 286 285 283 282 284 284 278 274 274 276 276 275 273 270 270 272 273 269 265 263 261 257 256 258 256 253 252 251 246 242 243 245 242 239 239 242
311 307 300 301 310 315 316 317 313 308 314 319 320 319 315 306 305 315 317 314 312 310 310 309 305 304 312 318 319 318 316 312 308 308 309 308 306 304 303 303 301 298 297 296 295 293 291 290 291 289 289 288 286 286 286 282 278 276 275 272 270 268 268 270 271 268 264 263 262 261 258 255 254 253 253 253 249 242 238 239 240 240 237 236 238
307 304 301 306 313 314 314 313 309 309 316 319 318 316 310 302 307 314 314 313 311 310 311 308 302 307 316 318 319 318 316 312 308 308 308 307 306 305 303 302 301 299 298 296 295 294 292 291 293 293 293 294 293 290 289 288 287 285 280 275 276 279 281 279 276 270 264 261 260 260 261 261 259 255 252 249 246 242 240 239 238 238 239 239 238
306 301 301 309 313 313 312 310 307 311 317 318 316 313 306 301 305 311 312 312 311 312 311 304 302 313 318 317 318 318 316 312 308 308 308 307 307 306 303 303 303 301 298 296 296 296 293 291 292 294 295 300 305 305 303 301 301 299 294 290 290 293 288 276 270 267 263 261 261 260 260 263 263 258 252 247 245 244 245 245 243 240 239 238 237
308 303 306 312 312 310 310 309 309 313 317 317 315 311 305 300 302 309 312 312 312 311 308 304 309 317 318 317 318 318 316 312 309 309 310 307 306 306 306 306 305 302 300 299 299 299 295 292 294 298 302 307 311 313 314 319 322 317 308 301 300 299 294 288 286 281 277 277 278 270 263 264 267 262 254 250 248 245 245 247 246 243 238 236 236
310 309 313 315 310 308 308 307 309 315 318 317 313 310 305 300 302 309 313 313 312 310 308 311 317 318 317 317 318 317 317 315 312 312 311 307 306 308 308 308 306 303 302 302 301 302 303 302 303 305 306 306 309 311 310 311 316 317 309 301 304 309 311 315 313 304 296 292 285 271 263 265 267 264 256 252 250 246 244 242 240 240 238 236 238
314 315 315 315 311 308 306 306 310 317 319 316 313 310 305 300 302 311 315 312 309 309 312 317 319 318 318 318 318 318 318 317 315 313 311 308 308 309 309 308 307 305 304 303 302 304 305 303 301 299 300 302 307 311 312 310 310 310 304 299 302 308 316 322 317 305 301 295 275 261 263 266 262 258 255 251 249 244 239 236 236 236 236 237 240
318 317 316 315 313 309 307 307 312 318 319 316 313 311 305 300 305 315 315 309 305 308 315 318 318 319 320 320 319 319 319 318 317 315 312 309 309 309 309 308 307 305 303 303 303 304 303 300 298 297 298 300 303 306 310 313 313 308 298 291 293 297 304 319 322 312 316 320 282 252 264 270 260 258 254 245 244 241 234 235 239 238 239 240 235
318 317 316 317 315 310 308 309 313 319 319 315 313 312 306 303 311 317 314 307 304 311 316 318 320 322 322 320 319 318 317 318 318 316 314 312 310 310 309 307 305 303 303 303 302 301 301 300 300 300 298 299 300 301 305 311 313 309 300 290 291 293 295 315 328 325 329 343 332 260 271 277 263 263 259 246 243 239 237 243 243 242 244 240 227
318 318 317 316 314 310 309 311 315 318 317 313 313 312 307 310 318 319 316 312 310 313 317 318 322 324 322 320 319 317 316 317 317 316 315 313 312 311 308 305 303 301 300 301 300 302 303 301 297 296 297 298 296 294 302 309 306 301 299 293 289 289 294 318 333 333 333 339 338 291 277 282 276 273 267 255 243 234 238 248 246 244 239 226 215
319 319 316 315 313 310 309 312 315 317 314 312 312 310 309 316 320 319 322 320 313 312 319 322 324 325 322 320 319 318 318 319 317 316 315 312 311 312 309 307 305 303 300 301 303 303 300 296 296 301 307 309 302 297 306 314 307 302 312 316 306 301 311 322 328 332 329 328 329 322 304 303 312 306 284 269 251 226 228 247 239 227 217 206 198
318 316 314 314 312 309 309 312 315 316 313 311 311 310 313 317 317 317 321 317 309 312 323 325 325 325 322 321 320 319 320 320 316 315 316 315 314 314 311 307 306 306 305 305 305 303 299 302 314 327 327 322 319 317 323 327 323 322 333 341 335 330 321 311 307 312 322 323 326 333 324 311 319 322 299 285 268 218 207 227 218 203 200 195 189
315 314 313 313 311 309 309 312 315 315 312 311 310 311 314 315 315 318 319 313 307 317 325 324 325 325 322 319 320 321 322 320 317 315 317 317 317 317 317 314 310 310 310 310 309 308 310 320 333 336 330 326 326 329 331 331 328 324 318 316 320 318 313 310 299 285 297 317 320 327 331 317 303 301 294 290 281 232 203 211 205 192 191 191 186